Location: ?????
(31.8092°N, 35.2590°E)
Time: 02:48:52
(UTC+00:00)

Envisat - Visible Passes

Search period start: 21 September 2021 00:00
Search period end: 01 October 2021 00:00
Orbit: 764 x 766 km, 98.2° (Epoch: 20 September)

Date Brightness Start Highest point End Pass type
(mag) Time Alt. Az. Time Alt. Az. Time Alt. Az.
21 Sep 5.9 01:33:59 10° ENE 01:36:38 14° E 01:39:16 10° SE visible
22 Sep 3.4 02:34:01 10° NNE 02:39:05 67° ESE 02:44:06 10° S visible
23 Sep 5.2 01:57:52 10° NE 02:02:08 27° E 02:06:22 10° SSE visible
24 Sep 6.3 01:24:16 10° E 01:25:01 10° E 01:25:46 10° E visible
24 Sep 3.0 02:59:21 10° N 03:04:22 66° WNW 03:09:23 10° SSW visible
25 Sep 4.0 02:22:37 10° NNE 02:27:33 50° E 02:32:27 10° S visible
26 Sep 5.6 01:46:49 10° NE 01:50:34 20° E 01:54:17 10° SE visible
27 Sep 3.0 02:47:47 10° N 02:52:53 86° WNW 02:57:57 10° SSW visible
28 Sep 4.5 02:11:18 10° NNE 02:16:01 38° E 02:20:42 10° SSE visible
29 Sep 5.9 01:36:00 10° ENE 01:38:58 16° E 01:41:56 10° SE visible
30 Sep 3.3 02:36:18 10° NNE 02:41:23 73° ESE 02:46:27 10° S visible
